Location: Ciserano
(45.5833°N, 9.6000°E)
Time: 00:34:18
(UTC+00:00)

SJ 16-02 - Pass Details

Date: 20 April 2021
Orbit: 605 x 617 km, 75.0° (Epoch: 10 May)

Event Time Altitude Azimuth Distance (km) Brightness Sun altitude
Exits shadow 00:10:39 18° 66° (ENE) 1,527 3.7 -31.8°
Drops below altitude 10° 00:12:22 10° 47° (NE) 1,984 4.6 -31.7°
Sets 00:15:00 0° 33° (NNE) 2,897 5.8 -31.6°
